Weather in Ust-Abakan

Russia / Republic of Khakassia     53°49′58″N   91°23′39″E
temp.,
°C
wind,
m/s
gust,
m/s
humid.,
%
clouds,
%
prec.,
mm/h
press.,
hPa
HPBL,
m
13 august, sat
sat1301:00+17nw118271 4.8 100811
04:00+16n11827 0.0 100811
07:00+16nnw01775 0.0 100859
10:00+20s006126 0.3 1007510
13:00+25ssw22485 0.3 10061187
16:00+26n123846 0.0 10041914
19:00+20sse336659 1.6 100561
22:00+17ssw238682 1.9 100659
14 august, sun
sun1401:00+16ssw228916 2.3 100631
04:00+15sw238993 0.0 100649
07:00+16ssw5108880 0.5 1007358
10:00+18sw5107873 0.3 1007539
13:00+24sw81140100 0.7 10062732
16:00+23w8114246 0.0 10061807
19:00+20wsw5105559 0.3 1007311
22:00+17sw596442 0.2 1008311
15 august, mon
mon1501:00+14ssw4885100 0.2 1007158
04:00+13ssw37888 0.1 1006124
07:00+15sw410825 1.5 1006327
10:00+19w7124611 0.4 10072085
13:00+22wsw9113133 0.4 10062996
16:00+21wsw883383 0.0 10072080
19:00+18wnw364856 0.1 1008307
22:00+12wsw23595 0.1 101050
16 august, tue
tue1601:00+10ne006710 0.1 101110
04:00+9s11715 0.0 101010
07:00+11sw210682 0.0 1010314
10:00+17w8124082 0.0 10092200
13:00+18w9103598 0.0 10091936
16:00+15w874895 0.0 10101052
19:00+13nnw4660100 0.0 1011625
22:00+10ese237378 0.0 101384
17 august, wed
wed1701:00+9ene228376 0.1 101333
04:00+8s1281100 0.0 101373
07:00+8ssw227593 0.0 1013120
10:00+13sw225619 0.0 1012684
13:00+15nnw654761 0.1 10111513
16:00+16n43465 0.0 10101228
19:00+14nne3556100 0.0 1010457
22:00+11ene226694 0.0 101026